TimeEDT,TemperatureF,Dew PointF,Humidity,Sea Level PressureIn,VisibilityMPH,Wind Direction,Wind SpeedMPH,Gust SpeedMPH,PrecipitationIn,Events,Conditions,WindDirDegrees,DateUTC
12:04 AM,-9999,-9999,N/A,29.67,-9999.0,North,-9999.0,-,N/A,Thunderstorm,Unknown,0,2013-06-13 04:04:00
12:19 AM,-9999,-9999,N/A,29.66,-9999.0,North,-9999.0,-,N/A,,Unknown,0,2013-06-13 04:19:00
12:53 AM,-9999,-9999,N/A,29.66,-9999.0,North,-9999.0,-,N/A,,Unknown,0,2013-06-13 04:53:00
1:53 AM,-9999,-9999,N/A,29.66,-9999.0,North,-9999.0,-,N/A,,Unknown,0,2013-06-13 05:53:00
2:53 AM,-9999,-9999,N/A,29.62,-9999.0,North,-9999.0,-,N/A,,Unknown,0,2013-06-13 06:53:00
3:53 AM,-9999,-9999,N/A,29.68,-9999.0,North,-9999.0,-,N/A,,Unknown,0,2013-06-13 07:53:00
4:53 AM,-9999,-9999,N/A,29.70,-9999.0,North,-9999.0,-,N/A,,Unknown,0,2013-06-13 08:53:00
5:53 AM,-9999,-9999,N/A,29.73,-9999.0,North,-9999.0,-,N/A,,Unknown,0,2013-06-13 09:53:00
6:53 AM,-9999,-9999,N/A,29.76,-9999.0,North,-9999.0,-,N/A,,Unknown,0,2013-06-13 10:53:00
7:53 AM,-9999,-9999,N/A,29.79,-9999.0,North,-9999.0,-,N/A,,Unknown,0,2013-06-13 11:53:00
8:53 AM,-9999,-9999,N/A,29.82,-9999.0,North,-9999.0,-,N/A,,Unknown,0,2013-06-13 12:53:00
9:53 AM,-9999,-9999,N/A,29.85,-9999.0,North,-9999.0,-,N/A,,Unknown,0,2013-06-13 13:53:00
10:53 AM,-9999,-9999,N/A,29.87,-9999.0,North,-9999.0,-,N/A,,Unknown,0,2013-06-13 14:53:00
11:53 AM,-9999,-9999,N/A,29.89,-9999.0,North,-9999.0,-,N/A,,Unknown,0,2013-06-13 15:53:00
12:53 PM,-9999,-9999,N/A,29.91,-9999.0,North,-9999.0,-,N/A,,Unknown,0,2013-06-13 16:53:00
1:53 PM,-9999,-9999,N/A,29.92,-9999.0,North,-9999.0,-,N/A,,Unknown,0,2013-06-13 17:53:00
2:53 PM,-9999,-9999,N/A,29.95,-9999.0,North,-9999.0,-,N/A,,Unknown,0,2013-06-13 18:53:00
3:53 PM,-9999,-9999,N/A,29.98,-9999.0,North,-9999.0,-,N/A,,Unknown,0,2013-06-13 19:53:00
4:53 PM,-9999,-9999,N/A,29.98,-9999.0,North,-9999.0,-,N/A,,Unknown,0,2013-06-13 20:53:00
5:53 PM,-9999,-9999,N/A,29.97,-9999.0,North,-9999.0,-,N/A,,Unknown,0,2013-06-13 21:53:00
6:53 PM,-9999,-9999,N/A,29.97,-9999.0,North,-9999.0,-,N/A,,Unknown,0,2013-06-13 22:53:00
7:53 PM,57.9,53.1,84,29.97,10.0,North,8.1,18.4,N/A,,Clear,360,2013-06-13 23:53:00
8:53 PM,57.0,53.1,87,29.97,10.0,Variable,6.9,-,N/A,,Clear,0,2013-06-14 00:53:00
9:53 PM,55.9,53.1,90,29.99,10.0,Variable,4.6,-,N/A,,Clear,0,2013-06-14 01:53:00
10:53 PM,57.0,53.1,87,30.00,10.0,Variable,4.6,-,N/A,,Clear,0,2013-06-14 02:53:00
11:53 PM,57.0,53.1,87,30.01,10.0,Variable,3.5,-,N/A,,Clear,0,2013-06-14 03:53:00